Time,TemperatureF,DewpointF,PressureIn,WindDirection,WindDirectionDegrees,WindSpeedMPH,WindSpeedGustMPH,Humidity,HourlyPrecipIn,Conditions,Clouds,dailyrainin,SolarRadiationWatts/m^2,SoftwareType,DateUTC
2013-03-13 00:00:00,35.0,32.9,29.80,South,190,6.0,6.0,92,0.00,OVC,,0.39,0.0,WeatherDisplay:10.37,2013-03-13 04:00:00,
2013-03-13 00:05:00,35.0,32.9,29.80,SW,229,3.5,3.5,92,0.00,RA,,0.00,0.0,WeatherDisplay:10.37,2013-03-13 04:05:00,
2013-03-13 00:10:00,35.0,32.9,29.80,SE,146,4.6,4.6,92,0.00,RA,,0.00,0.0,WeatherDisplay:10.37,2013-03-13 04:10:00,
2013-03-13 00:15:00,34.9,32.8,29.80,SW,220,4.0,4.0,92,0.00,OVC,,0.00,0.0,WeatherDisplay:10.37,2013-03-13 04:15:00,
2013-03-13 00:20:00,34.8,32.7,29.81,SSW,212,2.3,2.3,92,0.00,OVC,,0.00,0.0,WeatherDisplay:10.37,2013-03-13 04:20:00,
2013-03-13 00:25:00,34.8,32.7,29.80,SSE,168,3.5,3.5,92,0.00,OVC,,0.00,0.0,WeatherDisplay:10.37,2013-03-13 04:25:00,
2013-03-13 00:30:00,34.8,33.0,29.80,SSW,205,3.5,3.5,93,0.00,OVC,,0.00,0.0,WeatherDisplay:10.37,2013-03-13 04:30:00,
2013-03-13 00:35:00,34.7,32.6,29.80,SSW,205,3.5,3.5,92,0.00,OVC,,0.00,0.0,WeatherDisplay:10.37,2013-03-13 04:35:00,
2013-03-13 00:40:00,34.7,32.6,29.80,WSW,238,3.5,3.5,92,0.00,OVC,,0.00,0.0,WeatherDisplay:10.37,2013-03-13 04:40:00,
2013-03-13 00:45:00,34.7,32.6,29.80,WSW,240,5.8,5.8,92,0.00,OVC,,0.00,0.0,WeatherDisplay:10.37,2013-03-13 04:45:00,
2013-03-13 00:50:00,34.7,32.6,29.80,WSW,237,5.8,5.8,92,0.00,OVC,,0.00,0.0,WeatherDisplay:10.37,2013-03-13 04:50:00,
2013-03-13 00:55:00,34.7,32.9,29.80,WSW,252,3.5,3.5,93,0.00,OVC,,0.00,0.0,WeatherDisplay:10.37,2013-03-13 04:55:00,
2013-03-13 01:00:00,34.7,32.6,29.79,WSW,243,6.9,6.9,92,0.00,OVC,,0.00,0.0,WeatherDisplay:10.37,2013-03-13 05:00:00,
2013-03-13 01:05:00,34.8,33.0,29.79,West,269,3.5,3.5,93,0.00,OVC,,0.00,0.0,WeatherDisplay:10.37,2013-03-13 05:05:00,
2013-03-13 01:10:00,34.8,32.7,29.80,SW,226,4.6,4.6,92,0.00,OVC,,0.00,0.0,WeatherDisplay:10.37,2013-03-13 05:10:00,
2013-03-13 01:15:00,34.9,32.8,29.80,WSW,239,4.6,4.6,92,0.00,OVC,,0.00,0.0,WeatherDisplay:10.37,2013-03-13 05:15:00,
2013-03-13 01:20:00,34.9,32.8,29.80,West,261,4.6,4.6,92,0.00,OVC,,0.00,0.0,WeatherDisplay:10.37,2013-03-13 05:20:00,
2013-03-13 01:25:00,34.9,32.8,29.80,WSW,244,3.5,3.5,92,0.00,OVC,,0.00,0.0,WeatherDisplay:10.37,2013-03-13 05:25:00,
2013-03-13 01:30:00,34.9,32.8,29.80,WSW,246,9.0,9.0,92,0.00,OVC,,0.00,0.0,WeatherDisplay:10.37,2013-03-13 05:30:00,
2013-03-13 01:35:00,34.9,32.8,29.80,WSW,237,6.9,6.9,92,0.00,OVC,,0.00,0.0,WeatherDisplay:10.37,2013-03-13 05:35:00,
2013-03-13 01:40:00,34.9,32.8,29.80,West,267,3.5,3.5,92,0.00,OVC,,0.00,0.0,WeatherDisplay:10.37,2013-03-13 05:40:00,
2013-03-13 01:45:00,34.9,32.8,29.80,SW,233,6.0,6.0,92,0.00,OVC,,0.00,0.0,WeatherDisplay:10.37,2013-03-13 05:45:00,
2013-03-13 01:50:00,34.9,32.8,29.80,WSW,237,5.8,5.8,92,0.00,OVC,,0.00,0.0,WeatherDisplay:10.37,2013-03-13 05:50:00,
2013-03-13 01:55:00,34.9,32.8,29.80,SSW,205,4.6,4.6,92,0.00,OVC,,0.00,0.0,WeatherDisplay:10.37,2013-03-13 05:55:00,
2013-03-13 02:00:00,34.8,32.7,29.80,SW,227,4.6,4.6,92,0.00,OVC,,0.00,0.0,WeatherDisplay:10.37,2013-03-13 06:00:00,
2013-03-13 02:05:00,34.8,32.7,29.80,WSW,242,5.8,5.8,92,0.00,OVC,,0.00,0.0,WeatherDisplay:10.37,2013-03-13 06:05:00,
2013-03-13 02:10:00,34.8,32.4,29.80,WSW,240,4.0,4.0,91,0.00,OVC,,0.00,0.0,WeatherDisplay:10.37,2013-03-13 06:10:00,
2013-03-13 02:15:00,34.8,32.7,29.80,SW,227,9.2,9.2,92,0.00,OVC,,0.00,0.0,WeatherDisplay:10.37,2013-03-13 06:15:00,
2013-03-13 02:20:00,34.7,32.6,29.80,SW,223,4.6,4.6,92,0.00,OVC,,0.00,0.0,WeatherDisplay:10.37,2013-03-13 06:20:00,
2013-03-13 02:25:00,34.7,32.6,29.80,SW,219,8.1,8.1,92,0.00,OVC,,0.00,0.0,WeatherDisplay:10.37,2013-03-13 06:25:00,
2013-03-13 02:30:00,34.7,32.6,29.80,SW,223,8.1,8.1,92,0.00,OVC,,0.00,0.0,WeatherDisplay:10.37,2013-03-13 06:30:00,
2013-03-13 02:35:00,34.7,32.6,29.80,WSW,244,4.6,4.6,92,0.00,OVC,,0.00,0.0,WeatherDisplay:10.37,2013-03-13 06:35:00,
2013-03-13 02:40:00,34.7,32.3,29.80,SSW,208,5.8,5.8,91,0.00,OVC,,0.00,0.0,WeatherDisplay:10.37,2013-03-13 06:40:00,
2013-03-13 02:45:00,34.7,32.3,29.80,SW,215,3.5,3.8,91,0.00,OVC,,0.00,0.0,WeatherDisplay:10.37,2013-03-13 06:45:00,
2013-03-13 02:50:00,34.7,32.3,29.80,SSW,202,5.8,5.8,91,0.00,OVC,,0.00,0.0,WeatherDisplay:10.37,2013-03-13 06:50:00,
2013-03-13 02:55:00,34.6,32.2,29.80,SW,227,5.8,5.8,91,0.00,OVC,,0.00,0.0,WeatherDisplay:10.37,2013-03-13 06:55:00,
2013-03-13 03:00:00,34.6,32.2,29.80,SW,234,5.0,5.0,91,0.00,OVC,,0.00,0.0,WeatherDisplay:10.37,2013-03-13 07:00:00,
2013-03-13 03:05:00,34.6,32.2,29.80,SW,214,5.8,5.8,91,0.00,OVC,,0.00,0.0,WeatherDisplay:10.37,2013-03-13 07:05:00,
2013-03-13 03:10:00,34.6,32.2,29.80,SW,230,8.1,8.1,91,0.00,OVC,,0.00,0.0,WeatherDisplay:10.37,2013-03-13 07:10:00,
2013-03-13 03:15:00,34.6,32.2,29.80,SW,234,8.0,8.0,91,0.00,OVC,,0.00,0.0,WeatherDisplay:10.37,2013-03-13 07:15:00,
2013-03-13 03:20:00,34.5,32.1,29.80,SW,216,4.6,4.6,91,0.00,OVC,,0.00,0.0,WeatherDisplay:10.37,2013-03-13 07:20:00,
2013-03-13 03:25:00,34.4,32.0,29.80,WSW,242,6.9,6.9,91,0.00,OVC,,0.00,0.0,WeatherDisplay:10.37,2013-03-13 07:25:00,
2013-03-13 03:30:00,34.4,32.0,29.80,SW,232,8.1,8.1,91,0.00,OVC,,0.00,0.0,WeatherDisplay:10.37,2013-03-13 07:30:00,
2013-03-13 03:35:00,34.4,32.0,29.80,SSW,207,5.8,5.8,91,0.00,OVC,,0.00,0.0,WeatherDisplay:10.37,2013-03-13 07:35:00,
2013-03-13 03:40:00,34.4,32.0,29.80,SW,232,3.5,3.5,91,0.00,OVC,,0.00,0.0,WeatherDisplay:10.37,2013-03-13 07:40:00,
2013-03-13 03:45:00,34.4,32.0,29.80,WSW,252,5.0,5.0,91,0.00,OVC,,0.00,0.0,WeatherDisplay:10.37,2013-03-13 07:45:00,
2013-03-13 03:50:00,34.3,31.9,29.80,SW,225,6.9,6.9,91,0.00,OVC,,0.00,0.0,WeatherDisplay:10.37,2013-03-13 07:50:00,
2013-03-13 03:55:00,34.4,32.0,29.80,SW,221,9.2,9.2,91,0.00,OVC,,0.00,0.0,WeatherDisplay:10.37,2013-03-13 07:55:00,
2013-03-13 04:00:00,34.4,32.0,29.80,WSW,239,9.2,9.2,91,0.00,OVC,,0.00,0.0,WeatherDisplay:10.37,2013-03-13 08:00:00,
2013-03-13 04:05:00,34.4,32.0,29.80,SW,232,9.2,9.2,91,0.00,OVC,,0.00,0.0,WeatherDisplay:10.37,2013-03-13 08:05:00,
2013-03-13 04:10:00,34.4,32.0,29.80,SW,215,5.8,5.8,91,0.00,OVC,,0.00,0.0,WeatherDisplay:10.37,2013-03-13 08:10:00,
2013-03-13 04:15:00,34.4,32.0,29.79,WSW,248,10.0,10.0,91,0.00,OVC,,0.00,0.0,WeatherDisplay:10.37,2013-03-13 08:15:00,
2013-03-13 04:20:00,34.5,32.1,29.80,South,191,7.0,7.0,91,0.00,OVC,,0.00,0.0,WeatherDisplay:10.37,2013-03-13 08:20:00,
2013-03-13 04:25:00,34.5,32.1,29.80,WSW,244,7.0,7.0,91,0.00,OVC,,0.00,0.0,WeatherDisplay:10.37,2013-03-13 08:25:00,
2013-03-13 04:30:00,34.5,31.9,29.79,WNW,300,5.8,5.8,90,0.00,OVC,,0.00,0.0,WeatherDisplay:10.37,2013-03-13 08:30:00,
2013-03-13 04:35:00,34.5,32.1,29.80,SW,225,6.0,6.0,91,0.00,OVC,,0.00,0.0,WeatherDisplay:10.37,2013-03-13 08:35:00,
2013-03-13 04:40:00,34.5,31.9,29.80,SW,221,6.9,6.9,90,0.00,OVC,,0.00,0.0,WeatherDisplay:10.37,2013-03-13 08:40:00,
2013-03-13 04:45:00,34.4,31.8,29.80,West,261,5.8,5.8,90,0.00,OVC,,0.00,0.0,WeatherDisplay:10.37,2013-03-13 08:45:00,
2013-03-13 04:50:00,34.4,31.8,29.80,SW,226,8.1,8.1,90,0.00,OVC,,0.00,0.0,WeatherDisplay:10.37,2013-03-13 08:50:00,
2013-03-13 04:55:00,34.4,31.8,29.80,WSW,242,5.8,5.8,90,0.00,OVC,,0.00,0.0,WeatherDisplay:10.37,2013-03-13 08:55:00,
2013-03-13 05:00:00,34.4,31.8,29.80,SW,231,8.0,8.0,90,0.00,OVC,,0.00,0.0,WeatherDisplay:10.37,2013-03-13 09:00:00,
2013-03-13 05:05:00,34.4,31.8,29.80,WSW,238,7.0,7.0,90,0.00,OVC,,0.00,0.0,WeatherDisplay:10.37,2013-03-13 09:05:00,
2013-03-13 05:10:00,34.4,31.8,29.80,SW,223,9.2,9.2,90,0.00,OVC,,0.00,0.0,WeatherDisplay:10.37,2013-03-13 09:10:00,
2013-03-13 05:15:00,34.4,31.8,29.80,SSW,212,9.2,9.2,90,0.00,OVC,,0.00,0.0,WeatherDisplay:10.37,2013-03-13 09:15:00,
2013-03-13 05:20:00,34.3,31.7,29.80,SW,223,6.9,6.9,90,0.00,OVC,,0.00,0.0,WeatherDisplay:10.37,2013-03-13 09:20:00,
2013-03-13 05:25:00,34.3,31.7,29.80,WSW,238,4.6,4.6,90,0.00,OVC,,0.00,0.0,WeatherDisplay:10.37,2013-03-13 09:25:00,
2013-03-13 05:30:00,34.3,31.7,29.80,SSW,202,4.6,4.8,90,0.00,OVC,,0.00,0.0,WeatherDisplay:10.37,2013-03-13 09:30:00,
2013-03-13 05:35:00,34.2,31.6,29.80,WSW,242,5.8,5.8,90,0.00,OVC,,0.00,0.0,WeatherDisplay:10.37,2013-03-13 09:35:00,
2013-03-13 05:40:00,34.2,31.6,29.80,SW,234,7.0,7.0,90,0.00,OVC,,0.00,0.0,WeatherDisplay:10.37,2013-03-13 09:40:00,
2013-03-13 05:45:00,34.2,31.6,29.80,WSW,237,6.9,6.9,90,0.00,OVC,,0.00,0.0,WeatherDisplay:10.37,2013-03-13 09:45:00,
2013-03-13 05:50:00,34.2,31.6,29.81,West,271,4.6,4.6,90,0.00,OVC,,0.00,0.0,WeatherDisplay:10.37,2013-03-13 09:50:00,
2013-03-13 05:55:00,34.2,31.6,29.81,WSW,240,5.0,5.0,90,0.00,OVC,,0.00,0.0,WeatherDisplay:10.37,2013-03-13 09:55:00,
2013-03-13 06:00:00,34.2,31.6,29.80,WSW,240,5.8,5.8,90,0.00,OVC,,0.00,0.0,WeatherDisplay:10.37,2013-03-13 10:00:00,
2013-03-13 06:05:00,34.2,31.6,29.80,SW,235,5.8,5.8,90,0.00,OVC,,0.00,0.0,WeatherDisplay:10.37,2013-03-13 10:05:00,
2013-03-13 06:10:00,34.2,31.6,29.81,SW,221,3.5,3.5,90,0.00,OVC,,0.00,0.0,WeatherDisplay:10.37,2013-03-13 10:10:00,
2013-03-13 06:15:00,34.2,31.6,29.81,SW,232,3.5,3.5,90,0.00,OVC,,0.00,0.0,WeatherDisplay:10.37,2013-03-13 10:15:00,
2013-03-13 06:20:00,34.2,31.3,29.80,WSW,243,6.0,6.0,89,0.00,BKN,,0.00,0.0,WeatherDisplay:10.37,2013-03-13 10:20:00,
2013-03-13 06:25:00,34.2,31.3,29.81,SW,233,3.5,3.5,89,0.00,BKN,,0.00,0.0,WeatherDisplay:10.37,2013-03-13 10:25:00,
2013-03-13 06:30:00,34.2,31.6,29.81,SW,224,3.5,3.5,90,0.00,BKN,,0.00,0.0,WeatherDisplay:10.37,2013-03-13 10:30:00,
2013-03-13 06:35:00,34.1,31.5,29.81,SW,229,3.5,3.5,90,0.00,BKN,,0.00,0.0,WeatherDisplay:10.37,2013-03-13 10:35:00,
2013-03-13 06:40:00,34.1,31.5,29.81,SW,232,2.3,2.3,90,0.00,BKN,,0.00,0.0,WeatherDisplay:10.37,2013-03-13 10:40:00,
2013-03-13 06:45:00,34.1,31.5,29.81,SW,229,3.5,3.5,90,0.00,BKN,,0.00,0.0,WeatherDisplay:10.37,2013-03-13 10:45:00,
2013-03-13 06:50:00,34.1,31.5,29.80,SW,229,0.0,0.0,90,0.00,BKN,,0.00,0.0,WeatherDisplay:10.37,2013-03-13 10:50:00,
2013-03-13 06:55:00,33.9,31.3,29.81,SW,229,3.0,3.0,90,0.00,BKN,,0.00,0.0,WeatherDisplay:10.37,2013-03-13 10:55:00,
2013-03-13 07:00:00,33.8,31.2,29.81,SSW,208,3.5,3.5,90,0.00,BKN,,0.00,0.0,WeatherDisplay:10.37,2013-03-13 11:00:00,
2013-03-13 07:05:00,33.7,31.1,29.81,SSW,209,3.5,3.5,90,0.00,BKN,,0.00,0.0,WeatherDisplay:10.37,2013-03-13 11:05:00,
2013-03-13 07:10:00,33.7,31.1,29.81,SSW,209,2.3,2.3,90,0.00,BKN,,0.00,0.0,WeatherDisplay:10.37,2013-03-13 11:10:00,
2013-03-13 07:15:00,33.6,31.0,29.81,SSW,209,3.5,3.5,90,0.00,BKN,,0.00,0.0,WeatherDisplay:10.37,2013-03-13 11:15:00,
2013-03-13 07:20:00,33.6,31.3,29.81,SSW,209,3.0,3.0,91,0.00,OVC,,0.00,7.0,WeatherDisplay:10.37,2013-03-13 11:20:00,
2013-03-13 07:25:00,33.5,31.2,29.81,SSW,209,3.5,3.5,91,0.00,OVC,,0.00,9.0,WeatherDisplay:10.37,2013-03-13 11:25:00,
2013-03-13 07:30:00,33.5,31.2,29.81,SSW,200,4.0,4.0,91,0.00,OVC,,0.00,14.0,WeatherDisplay:10.37,2013-03-13 11:30:00,
2013-03-13 07:35:00,33.5,31.2,29.81,SW,227,5.8,5.8,91,0.00,OVC,,0.00,16.0,WeatherDisplay:10.37,2013-03-13 11:35:00,
2013-03-13 07:40:00,33.5,31.2,29.81,SW,219,5.8,5.8,91,0.00,OVC,,0.00,21.0,WeatherDisplay:10.37,2013-03-13 11:40:00,
2013-03-13 07:45:00,33.6,31.0,29.81,SW,232,4.6,4.6,90,0.00,OVC,,0.00,30.0,WeatherDisplay:10.37,2013-03-13 11:45:00,
2013-03-13 07:50:00,33.7,31.1,29.81,SW,225,4.6,4.6,90,0.00,OVC,,0.00,39.0,WeatherDisplay:10.37,2013-03-13 11:50:00,
2013-03-13 07:55:00,33.7,31.1,29.81,SW,227,3.5,3.5,90,0.00,OVC,,0.00,44.0,WeatherDisplay:10.37,2013-03-13 11:55:00,
2013-03-13 08:00:00,33.8,31.2,29.81,WNW,285,4.0,4.0,90,0.00,OVC,,0.00,47.0,WeatherDisplay:10.37,2013-03-13 12:00:00,
2013-03-13 08:05:00,33.9,31.3,29.81,SW,223,4.0,4.0,90,0.00,OVC,,0.00,49.0,WeatherDisplay:10.37,2013-03-13 12:05:00,
2013-03-13 08:10:00,34.0,31.1,29.81,SW,229,5.8,5.8,89,0.00,OVC,,0.00,56.0,WeatherDisplay:10.37,2013-03-13 12:10:00,
2013-03-13 08:15:00,34.1,31.2,29.81,SW,233,5.8,5.8,89,0.00,OVC,,0.00,67.0,WeatherDisplay:10.37,2013-03-13 12:15:00,
2013-03-13 08:20:00,34.1,31.2,29.81,SW,214,4.0,4.0,89,0.00,BKN,,0.00,76.0,WeatherDisplay:10.37,2013-03-13 12:20:00,
2013-03-13 08:25:00,34.2,31.3,29.81,WSW,238,3.5,3.5,89,0.00,BKN,,0.00,88.0,WeatherDisplay:10.37,2013-03-13 12:25:00,
2013-03-13 08:30:00,34.3,31.4,29.81,SW,236,5.0,5.0,89,0.00,BKN,,0.00,90.0,WeatherDisplay:10.37,2013-03-13 12:30:00,
2013-03-13 08:35:00,34.3,31.1,29.81,SW,224,3.5,3.5,88,0.00,BKN,,0.00,84.0,WeatherDisplay:10.37,2013-03-13 12:35:00,
2013-03-13 08:40:00,34.4,31.2,29.80,SSW,211,4.6,4.6,88,0.00,BKN,,0.00,70.0,WeatherDisplay:10.37,2013-03-13 12:40:00,
2013-03-13 08:45:00,34.4,30.9,29.81,SW,236,3.5,3.5,87,0.00,BKN,,0.00,67.0,WeatherDisplay:10.37,2013-03-13 12:45:00,
2013-03-13 08:50:00,34.5,31.0,29.81,SW,216,3.5,3.5,87,0.00,BKN,,0.00,70.0,WeatherDisplay:10.37,2013-03-13 12:50:00,
2013-03-13 08:55:00,34.5,31.0,29.80,SW,218,4.6,4.6,87,0.00,BKN,,0.00,60.0,WeatherDisplay:10.37,2013-03-13 12:55:00,
2013-03-13 09:00:00,34.5,31.0,29.81,SSW,203,4.6,4.6,87,0.00,BKN,,0.00,88.0,WeatherDisplay:10.37,2013-03-13 13:00:00,
2013-03-13 09:05:00,34.5,30.7,29.81,SSW,211,3.5,3.5,86,0.00,BKN,,0.00,139.0,WeatherDisplay:10.37,2013-03-13 13:05:00,
2013-03-13 09:10:00,34.7,30.9,29.81,WNW,290,7.0,7.0,86,0.00,BKN,,0.00,155.0,WeatherDisplay:10.37,2013-03-13 13:10:00,
2013-03-13 09:15:00,34.8,30.2,29.81,SW,221,6.0,6.0,83,0.00,BKN,,0.00,155.0,WeatherDisplay:10.37,2013-03-13 13:15:00,
2013-03-13 09:20:00,35.0,30.4,29.81,West,273,3.5,3.5,83,0.00,BKN,,0.00,160.0,WeatherDisplay:10.37,2013-03-13 13:20:00,
2013-03-13 09:25:00,35.2,30.3,29.80,West,263,6.9,6.9,82,0.00,BKN,,0.00,156.0,WeatherDisplay:10.37,2013-03-13 13:25:00,
2013-03-13 09:30:00,35.3,30.1,29.80,SW,236,6.0,6.0,81,0.00,BKN,,0.00,216.0,WeatherDisplay:10.37,2013-03-13 13:30:00,
2013-03-13 09:35:00,35.6,30.6,29.80,SW,217,4.0,4.0,82,0.00,BKN,,0.00,239.0,WeatherDisplay:10.37,2013-03-13 13:35:00,
2013-03-13 09:40:00,36.0,31.0,29.80,SW,227,2.3,2.3,82,0.00,BKN,,0.00,236.0,WeatherDisplay:10.37,2013-03-13 13:40:00,
2013-03-13 09:45:00,36.3,31.9,29.80,SW,228,4.0,4.0,84,0.00,BKN,,0.00,309.0,WeatherDisplay:10.37,2013-03-13 13:45:00,
2013-03-13 09:50:00,36.6,32.2,29.80,West,273,4.6,4.6,84,0.00,BKN,,0.00,265.0,WeatherDisplay:10.37,2013-03-13 13:50:00,
2013-03-13 09:55:00,36.7,31.7,29.80,West,281,5.0,5.0,82,0.00,BKN,,0.00,253.0,WeatherDisplay:10.37,2013-03-13 13:55:00,
2013-03-13 10:00:00,36.6,31.3,29.80,WSW,250,7.0,7.0,81,0.00,BKN,,0.00,243.0,WeatherDisplay:10.37,2013-03-13 14:00:00,
2013-03-13 10:05:00,36.2,30.6,29.80,WSW,237,6.9,6.9,80,0.00,BKN,,0.00,294.0,WeatherDisplay:10.37,2013-03-13 14:05:00,
2013-03-13 10:10:00,36.2,30.3,29.80,WSW,241,6.9,6.9,79,0.00,BKN,,0.00,367.0,WeatherDisplay:10.37,2013-03-13 14:10:00,
2013-03-13 10:15:00,36.4,30.5,29.80,WSW,240,5.8,5.8,79,0.00,BKN,,0.00,325.0,WeatherDisplay:10.37,2013-03-13 14:15:00,
2013-03-13 10:20:00,36.7,30.5,29.80,WSW,240,5.0,5.0,78,0.00,BKN,,0.00,302.0,WeatherDisplay:10.37,2013-03-13 14:20:00,
2013-03-13 10:25:00,36.6,30.4,29.80,SW,232,5.8,5.8,78,0.00,BKN,,0.00,306.0,WeatherDisplay:10.37,2013-03-13 14:25:00,
2013-03-13 10:30:00,36.6,30.1,29.80,SW,234,6.9,6.9,77,0.00,BKN,,0.00,327.0,WeatherDisplay:10.37,2013-03-13 14:30:00,
2013-03-13 10:35:00,36.6,30.4,29.80,SSW,205,4.0,4.0,78,0.00,BKN,,0.00,355.0,WeatherDisplay:10.37,2013-03-13 14:35:00,
2013-03-13 10:40:00,36.5,30.0,29.80,WSW,240,9.2,9.2,77,0.00,BKN,,0.00,329.0,WeatherDisplay:10.37,2013-03-13 14:40:00,
2013-03-13 10:45:00,36.5,29.7,29.80,WSW,239,8.1,8.1,76,0.00,BKN,,0.00,346.0,WeatherDisplay:10.37,2013-03-13 14:45:00,
2013-03-13 10:50:00,36.5,29.7,29.80,WSW,240,8.1,8.1,76,0.00,BKN,,0.00,355.0,WeatherDisplay:10.37,2013-03-13 14:50:00,
2013-03-13 10:55:00,36.7,29.5,29.80,SW,236,5.8,5.8,75,0.00,BKN,,0.00,418.0,WeatherDisplay:10.37,2013-03-13 14:55:00,
2013-03-13 11:00:00,36.9,29.4,29.80,WSW,245,6.9,6.9,74,0.00,BKN,,0.00,376.0,WeatherDisplay:10.37,2013-03-13 15:00:00,
2013-03-13 11:05:00,36.8,29.0,29.80,WSW,246,7.0,7.0,73,0.00,BKN,,0.00,383.0,WeatherDisplay:10.37,2013-03-13 15:05:00,
2013-03-13 11:10:00,36.9,28.7,29.80,WSW,237,8.1,8.1,72,0.00,BKN,,0.00,355.0,WeatherDisplay:10.37,2013-03-13 15:10:00,
2013-03-13 11:15:00,36.8,28.3,29.80,SW,227,8.1,8.1,71,0.00,BKN,,0.00,390.0,WeatherDisplay:10.37,2013-03-13 15:15:00,
2013-03-13 11:20:00,36.9,28.0,29.80,SW,236,6.0,6.0,70,0.00,BKN,,0.00,431.0,WeatherDisplay:10.37,2013-03-13 15:20:00,
2013-03-13 11:25:00,37.0,27.8,29.80,WSW,239,9.2,9.2,69,0.00,BKN,,0.00,478.0,WeatherDisplay:10.37,2013-03-13 15:25:00,
2013-03-13 11:30:00,37.3,28.1,29.80,SW,236,9.2,9.2,69,0.00,BKN,,0.00,469.0,WeatherDisplay:10.37,2013-03-13 15:30:00,
2013-03-13 11:35:00,37.4,27.4,29.79,SSW,213,8.1,8.1,67,0.00,BKN,,0.00,424.0,WeatherDisplay:10.37,2013-03-13 15:35:00,
2013-03-13 11:40:00,37.5,27.9,29.79,SW,220,5.8,5.8,68,0.00,BKN,,0.00,374.0,WeatherDisplay:10.37,2013-03-13 15:40:00,
2013-03-13 11:45:00,37.6,27.3,29.80,West,263,8.1,8.1,66,0.00,BKN,,0.00,434.0,WeatherDisplay:10.37,2013-03-13 15:45:00,
2013-03-13 11:50:00,37.7,27.0,29.80,SSW,207,5.8,5.8,65,0.00,BKN,,0.00,469.0,WeatherDisplay:10.37,2013-03-13 15:50:00,
2013-03-13 11:55:00,37.9,27.2,29.80,SW,232,7.0,7.0,65,0.00,BKN,,0.00,524.0,WeatherDisplay:10.37,2013-03-13 15:55:00,
2013-03-13 12:00:00,38.1,27.7,29.79,SW,226,5.8,5.8,66,0.00,BKN,,0.00,425.0,WeatherDisplay:10.37,2013-03-13 16:00:00,
2013-03-13 12:05:00,38.1,27.7,29.79,SW,219,5.8,5.8,66,0.00,BKN,,0.00,383.0,WeatherDisplay:10.37,2013-03-13 16:05:00,
2013-03-13 12:10:00,37.9,27.5,29.79,West,271,5.8,5.8,66,0.00,BKN,,0.00,325.0,WeatherDisplay:10.37,2013-03-13 16:10:00,
2013-03-13 12:15:00,38.2,28.2,29.79,West,269,3.5,3.5,67,0.00,BKN,,0.00,833.0,WeatherDisplay:10.37,2013-03-13 16:15:00,
2013-03-13 12:20:00,38.4,26.5,29.79,WSW,246,9.2,9.2,62,0.00,BKN,,0.00,436.0,WeatherDisplay:10.37,2013-03-13 16:20:00,
2013-03-13 12:25:00,38.6,27.5,29.79,WSW,240,9.2,9.2,64,0.00,BKN,,0.00,373.0,WeatherDisplay:10.37,2013-03-13 16:25:00,
2013-03-13 12:30:00,38.7,27.6,29.79,West,260,10.4,10.4,64,0.00,BKN,,0.00,306.0,WeatherDisplay:10.37,2013-03-13 16:30:00,
2013-03-13 12:35:00,38.4,26.5,29.79,SW,218,6.0,6.0,62,0.00,BKN,,0.00,536.0,WeatherDisplay:10.37,2013-03-13 16:35:00,
2013-03-13 12:40:00,38.5,26.2,29.79,West,279,9.0,9.0,61,0.00,BKN,,0.00,538.0,WeatherDisplay:10.37,2013-03-13 16:40:00,
2013-03-13 12:45:00,38.5,25.8,29.78,West,265,11.5,11.5,60,0.00,BKN,,0.00,772.0,WeatherDisplay:10.37,2013-03-13 16:45:00,
2013-03-13 12:50:00,39.1,27.2,29.78,West,277,5.8,5.8,62,0.00,BKN,,0.00,722.0,WeatherDisplay:10.37,2013-03-13 16:50:00,
2013-03-13 12:55:00,39.4,26.7,29.78,WSW,243,6.0,6.0,60,0.00,BKN,,0.00,766.0,WeatherDisplay:10.37,2013-03-13 16:55:00,
2013-03-13 13:00:00,39.9,25.9,29.78,SSW,211,6.9,6.9,57,0.00,BKN,,0.00,726.0,WeatherDisplay:10.37,2013-03-13 17:00:00,
2013-03-13 13:05:00,40.0,26.4,29.77,WSW,255,6.9,6.9,58,0.00,BKN,,0.00,717.0,WeatherDisplay:10.37,2013-03-13 17:05:00,
2013-03-13 13:10:00,40.1,25.2,29.77,West,273,9.2,9.2,55,0.00,BKN,,0.00,705.0,WeatherDisplay:10.37,2013-03-13 17:10:00,
2013-03-13 13:15:00,39.7,25.7,29.77,WSW,248,9.2,9.2,57,0.00,BKN,,0.00,461.0,WeatherDisplay:10.37,2013-03-13 17:15:00,
2013-03-13 13:20:00,39.5,25.5,29.77,West,278,6.9,6.9,57,0.00,SCT,,0.00,450.0,WeatherDisplay:10.37,2013-03-13 17:20:00,
2013-03-13 13:25:00,39.1,24.7,29.77,West,272,6.9,6.9,56,0.00,SCT,,0.00,439.0,WeatherDisplay:10.37,2013-03-13 17:25:00,
2013-03-13 13:30:00,38.9,25.8,29.77,WSW,248,5.0,5.0,59,0.00,SCT,,0.00,383.0,WeatherDisplay:10.37,2013-03-13 17:30:00,
2013-03-13 13:35:00,39.1,26.4,29.77,SW,233,9.2,9.2,60,0.00,SCT,,0.00,506.0,WeatherDisplay:10.37,2013-03-13 17:35:00,
2013-03-13 13:40:00,39.1,25.6,29.77,WSW,246,7.0,7.0,58,0.00,SCT,,0.00,534.0,WeatherDisplay:10.37,2013-03-13 17:40:00,
2013-03-13 13:45:00,39.6,27.2,29.77,North,360,6.9,6.9,61,0.00,SCT,,0.00,828.0,WeatherDisplay:10.37,2013-03-13 17:45:00,
2013-03-13 13:50:00,40.4,25.9,29.77,SSW,211,5.8,5.8,56,0.00,SCT,,0.00,464.0,WeatherDisplay:10.37,2013-03-13 17:50:00,
2013-03-13 13:55:00,40.2,24.9,29.76,West,265,8.1,8.1,54,0.00,SCT,,0.00,840.0,WeatherDisplay:10.37,2013-03-13 17:55:00,
2013-03-13 14:00:00,41.2,26.2,29.76,SW,230,9.2,9.2,55,0.00,SCT,,0.00,823.0,WeatherDisplay:10.37,2013-03-13 18:00:00,
2013-03-13 14:05:00,41.4,26.4,29.76,SW,235,11.5,11.5,55,0.00,SCT,,0.00,809.0,WeatherDisplay:10.37,2013-03-13 18:05:00,
2013-03-13 14:10:00,40.8,26.3,29.76,North,360,9.2,9.2,56,0.00,SCT,,0.00,650.0,WeatherDisplay:10.37,2013-03-13 18:10:00,
2013-03-13 14:15:00,40.1,24.8,29.76,West,273,4.6,4.6,54,0.00,SCT,,0.00,772.0,WeatherDisplay:10.37,2013-03-13 18:15:00,
2013-03-13 14:20:00,41.0,25.6,29.76,WSW,246,8.0,8.0,54,0.00,SCT,,0.00,775.0,WeatherDisplay:10.37,2013-03-13 18:20:00,
2013-03-13 14:25:00,40.7,25.3,29.76,West,266,9.2,9.2,54,0.00,SCT,,0.00,752.0,WeatherDisplay:10.37,2013-03-13 18:25:00,
2013-03-13 14:30:00,40.5,25.1,29.76,WSW,237,6.9,6.9,54,0.00,SCT,,0.00,752.0,WeatherDisplay:10.37,2013-03-13 18:30:00,
2013-03-13 14:35:00,40.5,25.1,29.76,WSW,255,9.2,9.2,54,0.00,BKN,,0.00,735.0,WeatherDisplay:10.37,2013-03-13 18:35:00,
2013-03-13 14:40:00,39.7,24.0,29.76,West,270,10.4,10.4,53,0.00,BKN,,0.00,540.0,WeatherDisplay:10.37,2013-03-13 18:40:00,
2013-03-13 14:45:00,39.9,25.0,29.75,West,278,13.0,13.0,55,0.00,BKN,,0.00,432.0,WeatherDisplay:10.37,2013-03-13 18:45:00,
2013-03-13 14:50:00,39.5,25.1,29.76,SW,218,6.9,6.9,56,0.00,BKN,,0.00,566.0,WeatherDisplay:10.37,2013-03-13 18:50:00,
2013-03-13 14:55:00,39.5,24.7,29.75,West,272,6.9,6.9,55,0.00,BKN,,0.00,513.0,WeatherDisplay:10.37,2013-03-13 18:55:00,
2013-03-13 15:00:00,39.4,25.4,29.75,West,266,11.5,11.5,57,0.00,BKN,,0.00,487.0,WeatherDisplay:10.37,2013-03-13 19:00:00,
2013-03-13 15:05:00,39.4,26.2,29.75,WSW,238,7.0,7.0,59,0.00,BKN,,0.00,369.0,WeatherDisplay:10.37,2013-03-13 19:05:00,
2013-03-13 15:10:00,40.3,26.3,29.75,West,259,4.6,4.6,57,0.00,BKN,,0.00,698.0,WeatherDisplay:10.37,2013-03-13 19:10:00,
2013-03-13 15:15:00,40.0,25.6,29.75,SW,236,6.9,6.9,56,0.00,BKN,,0.00,355.0,WeatherDisplay:10.37,2013-03-13 19:15:00,
2013-03-13 15:20:00,39.8,25.8,29.75,SW,234,6.0,6.0,57,0.00,BKN,,0.00,766.0,WeatherDisplay:10.37,2013-03-13 19:20:00,
2013-03-13 15:25:00,39.8,26.2,29.75,West,276,9.2,9.2,58,0.00,BKN,,0.00,267.0,WeatherDisplay:10.37,2013-03-13 19:25:00,
2013-03-13 15:30:00,39.7,26.5,29.75,SW,221,6.9,6.9,59,0.00,BKN,,0.00,670.0,WeatherDisplay:10.37,2013-03-13 19:30:00,
2013-03-13 15:35:00,40.2,27.4,29.75,SW,221,5.0,5.0,60,0.00,SCT,,0.00,654.0,WeatherDisplay:10.37,2013-03-13 19:35:00,
2013-03-13 15:40:00,40.3,26.7,29.75,WSW,242,5.8,5.8,58,0.00,SCT,,0.00,353.0,WeatherDisplay:10.37,2013-03-13 19:40:00,
2013-03-13 15:45:00,40.2,26.6,29.75,SW,228,4.6,4.6,58,0.00,SCT,,0.00,327.0,WeatherDisplay:10.37,2013-03-13 19:45:00,
2013-03-13 15:50:00,39.7,25.7,29.75,SW,229,8.1,8.1,57,0.00,SCT,,0.00,325.0,WeatherDisplay:10.37,2013-03-13 19:50:00,
2013-03-13 15:55:00,39.2,25.2,29.75,WSW,242,4.6,4.6,57,0.00,SCT,,0.00,250.0,WeatherDisplay:10.37,2013-03-13 19:55:00,
2013-03-13 16:00:00,39.2,25.6,29.75,West,261,9.2,9.2,58,0.00,SCT,,0.00,290.0,WeatherDisplay:10.37,2013-03-13 20:00:00,
2013-03-13 16:05:00,39.1,25.6,29.75,North,360,6.9,6.9,58,0.00,SCT,,0.00,260.0,WeatherDisplay:10.37,2013-03-13 20:05:00,
2013-03-13 16:10:00,39.0,25.9,29.75,West,271,6.9,6.9,59,0.00,SCT,,0.00,253.0,WeatherDisplay:10.37,2013-03-13 20:10:00,
2013-03-13 16:15:00,39.1,26.0,29.75,SW,227,8.1,8.1,59,0.00,SCT,,0.00,698.0,WeatherDisplay:10.37,2013-03-13 20:15:00,
2013-03-13 16:20:00,39.6,26.0,29.75,SW,229,8.1,8.1,58,0.00,BKN,,0.00,214.0,WeatherDisplay:10.37,2013-03-13 20:20:00,
2013-03-13 16:25:00,39.4,25.8,29.75,North,360,3.5,3.5,58,0.00,BKN,,0.00,123.0,WeatherDisplay:10.37,2013-03-13 20:25:00,
2013-03-13 16:30:00,38.9,26.2,29.75,SW,221,7.0,7.0,60,0.00,BKN,,0.00,118.0,WeatherDisplay:10.37,2013-03-13 20:30:00,
2013-03-13 16:35:00,38.3,26.0,29.75,SW,217,4.6,4.6,61,0.00,BKN,,0.00,141.0,WeatherDisplay:10.37,2013-03-13 20:35:00,
2013-03-13 16:40:00,38.0,26.1,29.75,SW,229,5.8,5.8,62,0.00,BKN,,0.00,158.0,WeatherDisplay:10.37,2013-03-13 20:40:00,
2013-03-13 16:45:00,37.9,26.0,29.75,SSW,213,4.0,4.0,62,0.00,BKN,,0.00,178.0,WeatherDisplay:10.37,2013-03-13 20:45:00,
2013-03-13 16:50:00,38.2,26.7,29.75,SW,219,4.6,4.6,63,0.00,BKN,,0.00,295.0,WeatherDisplay:10.37,2013-03-13 20:50:00,
2013-03-13 16:55:00,38.5,26.6,29.75,SW,225,4.6,4.6,62,0.00,BKN,,0.00,149.0,WeatherDisplay:10.37,2013-03-13 20:55:00,
2013-03-13 17:00:00,38.5,26.6,29.75,South,189,8.1,8.1,62,0.00,BKN,,0.00,267.0,WeatherDisplay:10.37,2013-03-13 21:00:00,
2013-03-13 17:05:00,38.6,26.7,29.75,SW,219,10.4,10.4,62,0.00,BKN,,0.00,195.0,WeatherDisplay:10.37,2013-03-13 21:05:00,
2013-03-13 17:10:00,38.5,26.6,29.75,SW,218,4.6,4.6,62,0.00,BKN,,0.00,232.0,WeatherDisplay:10.37,2013-03-13 21:10:00,
2013-03-13 17:15:00,38.3,26.8,29.75,SSW,194,6.9,6.9,63,0.00,BKN,,0.00,172.0,WeatherDisplay:10.37,2013-03-13 21:15:00,
2013-03-13 17:20:00,38.3,26.8,29.75,SW,229,4.6,4.6,63,0.00,BKN,,0.00,130.0,WeatherDisplay:10.37,2013-03-13 21:20:00,
2013-03-13 17:25:00,38.1,26.6,29.75,SSW,201,3.5,3.5,63,0.00,BKN,,0.00,62.0,WeatherDisplay:10.37,2013-03-13 21:25:00,
2013-03-13 17:30:00,37.8,26.7,29.75,SSW,208,5.0,7.0,64,0.00,BKN,,0.00,79.0,WeatherDisplay:10.37,2013-03-13 21:30:00,
2013-03-13 17:35:00,37.5,27.2,29.75,SSW,199,3.5,3.5,66,0.00,BKN,,0.00,76.0,WeatherDisplay:10.37,2013-03-13 21:35:00,
2013-03-13 17:40:00,37.3,27.0,29.75,SW,227,5.0,5.0,66,0.00,BKN,,0.00,67.0,WeatherDisplay:10.37,2013-03-13 21:40:00,
2013-03-13 17:45:00,37.2,26.9,29.75,South,191,3.5,3.5,66,0.00,BKN,,0.00,67.0,WeatherDisplay:10.37,2013-03-13 21:45:00,
2013-03-13 17:50:00,37.1,27.2,29.75,South,178,3.5,3.5,67,0.00,BKN,,0.00,54.0,WeatherDisplay:10.37,2013-03-13 21:50:00,
2013-03-13 17:55:00,37.0,27.1,29.75,SSW,194,3.5,3.5,67,0.00,BKN,,0.00,60.0,WeatherDisplay:10.37,2013-03-13 21:55:00,
2013-03-13 18:00:00,37.0,27.4,29.75,SW,222,4.0,4.0,68,0.00,BKN,,0.00,114.0,WeatherDisplay:10.37,2013-03-13 22:00:00,
2013-03-13 18:05:00,36.9,27.0,29.75,SSW,200,3.5,3.5,67,0.00,BKN,,0.00,70.0,WeatherDisplay:10.37,2013-03-13 22:05:00,
2013-03-13 18:10:00,37.0,27.1,29.75,SW,221,5.8,5.8,67,0.00,BKN,,0.00,74.0,WeatherDisplay:10.37,2013-03-13 22:10:00,
2013-03-13 18:15:00,37.0,27.1,29.75,SSW,211,3.5,3.5,67,0.00,BKN,,0.00,69.0,WeatherDisplay:10.37,2013-03-13 22:15:00,
2013-03-13 18:20:00,37.1,27.2,29.75,SSW,200,5.8,5.8,67,0.00,BKN,,0.00,49.0,WeatherDisplay:10.37,2013-03-13 22:20:00,
2013-03-13 18:25:00,36.9,27.3,29.75,SSW,200,6.9,6.9,68,0.00,BKN,,0.00,33.0,WeatherDisplay:10.37,2013-03-13 22:25:00,
2013-03-13 18:30:00,36.9,26.9,29.75,SSW,205,3.0,7.0,67,0.00,BKN,,0.00,21.0,WeatherDisplay:10.37,2013-03-13 22:30:00,
2013-03-13 18:35:00,36.6,27.0,29.75,SW,226,3.5,3.5,68,0.00,BKN,,0.00,16.0,WeatherDisplay:10.37,2013-03-13 22:35:00,
2013-03-13 18:40:00,36.4,27.2,29.75,SW,217,3.5,3.5,69,0.00,BKN,,0.00,14.0,WeatherDisplay:10.37,2013-03-13 22:40:00,
2013-03-13 18:45:00,36.2,27.0,29.75,SW,223,3.0,3.0,69,0.00,BKN,,0.00,11.0,WeatherDisplay:10.37,2013-03-13 22:45:00,
2013-03-13 18:50:00,36.1,27.3,29.75,SSW,209,3.5,3.5,70,0.00,BKN,,0.00,11.0,WeatherDisplay:10.37,2013-03-13 22:50:00,
2013-03-13 18:55:00,35.9,27.1,29.75,SW,226,3.5,3.5,70,0.00,BKN,,0.00,7.0,WeatherDisplay:10.37,2013-03-13 22:55:00,
2013-03-13 19:00:00,35.8,27.3,29.75,SW,227,3.5,3.5,71,0.00,BKN,,0.00,5.0,WeatherDisplay:10.37,2013-03-13 23:00:00,
2013-03-13 19:05:00,35.7,27.2,29.75,SW,227,1.2,1.2,71,0.00,BKN,,0.00,0.0,WeatherDisplay:10.37,2013-03-13 23:05:00,
2013-03-13 19:10:00,35.4,27.3,29.75,SW,227,0.0,0.0,72,0.00,BKN,,0.00,0.0,WeatherDisplay:10.37,2013-03-13 23:10:00,
2013-03-13 19:15:00,35.3,27.2,29.75,SW,227,0.0,0.0,72,0.00,BKN,,0.00,0.0,WeatherDisplay:10.37,2013-03-13 23:15:00,
2013-03-13 19:20:00,35.1,26.9,29.75,SW,227,1.0,2.0,72,0.00,SCT,,0.00,0.0,WeatherDisplay:10.37,2013-03-13 23:20:00,
2013-03-13 19:25:00,34.8,27.0,29.75,SW,227,3.0,3.0,73,0.00,SCT,,0.00,0.0,WeatherDisplay:10.37,2013-03-13 23:25:00,
2013-03-13 19:30:00,34.7,27.3,29.75,SW,227,1.2,1.2,74,0.00,SCT,,0.00,0.0,WeatherDisplay:10.37,2013-03-13 23:30:00,
2013-03-13 19:35:00,34.7,26.9,29.75,SW,228,3.5,3.5,73,0.00,SCT,,0.00,0.0,WeatherDisplay:10.37,2013-03-13 23:35:00,
2013-03-13 19:40:00,34.8,27.0,29.75,SW,228,3.5,3.5,73,0.00,SCT,,0.00,0.0,WeatherDisplay:10.37,2013-03-13 23:40:00,
2013-03-13 19:45:00,34.8,27.0,29.74,SW,228,2.3,2.3,73,0.00,SCT,,0.00,0.0,WeatherDisplay:10.37,2013-03-13 23:45:00,
2013-03-13 19:50:00,34.8,26.7,29.75,SW,228,1.2,1.2,72,0.00,SCT,,0.00,0.0,WeatherDisplay:10.37,2013-03-13 23:50:00,
2013-03-13 19:55:00,34.7,27.9,29.75,SW,228,0.0,0.0,76,0.00,SCT,,0.00,0.0,WeatherDisplay:10.37,2013-03-13 23:55:00,
2013-03-13 20:00:00,34.6,26.5,29.75,SW,228,2.3,2.3,72,0.00,SCT,,0.00,0.0,WeatherDisplay:10.37,2013-03-14 00:00:00,
2013-03-13 20:05:00,34.3,26.5,29.75,SW,228,2.3,2.3,73,0.00,SCT,,0.00,0.0,WeatherDisplay:10.37,2013-03-14 00:05:00,
2013-03-13 20:10:00,34.1,26.3,29.75,SW,228,0.0,0.0,73,0.00,SCT,,0.00,0.0,WeatherDisplay:10.37,2013-03-14 00:10:00,
2013-03-13 20:15:00,33.9,26.5,29.75,SW,228,2.3,2.3,74,0.00,SCT,,0.00,0.0,WeatherDisplay:10.37,2013-03-14 00:15:00,
2013-03-13 20:20:00,33.8,26.4,29.75,WSW,237,5.8,5.8,74,0.00,SCT,,0.00,0.0,WeatherDisplay:10.37,2013-03-14 00:20:00,
2013-03-13 20:25:00,33.7,26.3,29.75,WSW,239,3.5,3.5,74,0.00,SCT,,0.00,0.0,WeatherDisplay:10.37,2013-03-14 00:25:00,
2013-03-13 20:30:00,33.8,26.1,29.75,SW,216,4.6,4.6,73,0.00,SCT,,0.00,0.0,WeatherDisplay:10.37,2013-03-14 00:30:00,
2013-03-13 20:35:00,33.9,25.8,29.75,SW,220,6.9,6.9,72,0.00,BKN,,0.00,0.0,WeatherDisplay:10.37,2013-03-14 00:35:00,
2013-03-13 20:40:00,34.1,25.7,29.75,SW,224,4.6,4.6,71,0.00,BKN,,0.00,0.0,WeatherDisplay:10.37,2013-03-14 00:40:00,
2013-03-13 20:45:00,34.1,25.3,29.75,SW,227,4.6,4.6,70,0.00,BKN,,0.00,0.0,WeatherDisplay:10.37,2013-03-14 00:45:00,
2013-03-13 20:50:00,34.1,25.3,29.75,SW,225,11.0,11.0,70,0.00,BKN,,0.00,0.0,WeatherDisplay:10.37,2013-03-14 00:50:00,
2013-03-13 20:55:00,34.1,25.3,29.75,SW,228,8.0,8.0,70,0.00,BKN,,0.00,0.0,WeatherDisplay:10.37,2013-03-14 00:55:00,
2013-03-13 21:00:00,34.1,25.3,29.75,WSW,252,6.9,6.9,70,0.00,BKN,,0.00,0.0,WeatherDisplay:10.37,2013-03-14 01:00:00,
2013-03-13 21:05:00,34.0,25.2,29.75,WSW,238,7.0,7.0,70,0.00,BKN,,0.00,0.0,WeatherDisplay:10.37,2013-03-14 01:05:00,
2013-03-13 21:10:00,33.9,25.5,29.75,SW,225,6.9,6.9,71,0.00,BKN,,0.00,0.0,WeatherDisplay:10.37,2013-03-14 01:10:00,
2013-03-13 21:15:00,33.8,25.4,29.75,SW,223,3.5,3.5,71,0.00,BKN,,0.00,0.0,WeatherDisplay:10.37,2013-03-14 01:15:00,
2013-03-13 21:20:00,33.6,25.5,29.75,SW,227,7.0,7.0,72,0.00,SCT,,0.00,0.0,WeatherDisplay:10.37,2013-03-14 01:20:00,
2013-03-13 21:25:00,33.5,25.8,29.75,WSW,244,6.9,6.9,73,0.00,SCT,,0.00,0.0,WeatherDisplay:10.37,2013-03-14 01:25:00,
2013-03-13 21:30:00,33.5,25.7,29.75,SW,233,3.0,7.0,73,0.00,SCT,,0.00,0.0,WeatherDisplay:10.37,2013-03-14 01:30:00,
2013-03-13 21:35:00,33.5,25.8,29.75,SW,225,3.5,3.5,73,0.00,SCT,,0.00,0.0,WeatherDisplay:10.37,2013-03-14 01:35:00,
2013-03-13 21:40:00,33.5,25.8,29.75,West,276,8.1,8.1,73,0.00,SCT,,0.00,0.0,WeatherDisplay:10.37,2013-03-14 01:40:00,
2013-03-13 21:45:00,33.5,26.1,29.75,West,270,5.8,5.8,74,0.00,SCT,,0.00,0.0,WeatherDisplay:10.37,2013-03-14 01:45:00,
2013-03-13 21:50:00,33.5,26.1,29.76,WSW,252,5.8,5.8,74,0.00,SCT,,0.00,0.0,WeatherDisplay:10.37,2013-03-14 01:50:00,
2013-03-13 21:55:00,33.5,26.1,29.75,SW,232,4.6,4.6,74,0.00,SCT,,0.00,0.0,WeatherDisplay:10.37,2013-03-14 01:55:00,
2013-03-13 22:00:00,33.5,26.1,29.75,WSW,243,4.6,4.6,74,0.00,SCT,,0.00,0.0,WeatherDisplay:10.37,2013-03-14 02:00:00,
2013-03-13 22:05:00,33.3,26.2,29.75,SW,225,4.0,4.0,75,0.00,SCT,,0.00,0.0,WeatherDisplay:10.37,2013-03-14 02:05:00,
2013-03-13 22:10:00,33.2,26.1,29.75,West,269,4.0,4.0,75,0.00,SCT,,0.00,0.0,WeatherDisplay:10.37,2013-03-14 02:10:00,
2013-03-13 22:15:00,33.2,26.5,29.75,WSW,246,3.5,3.5,76,0.00,SCT,,0.00,0.0,WeatherDisplay:10.37,2013-03-14 02:15:00,
2013-03-13 22:20:00,33.2,26.5,29.75,West,269,4.6,4.6,76,0.00,BKN,,0.00,0.0,WeatherDisplay:10.37,2013-03-14 02:20:00,
2013-03-13 22:25:00,33.0,26.3,29.75,WSW,256,3.5,3.5,76,0.00,BKN,,0.00,0.0,WeatherDisplay:10.37,2013-03-14 02:25:00,
2013-03-13 22:30:00,33.0,26.3,29.75,WSW,252,2.0,5.0,76,0.00,BKN,,0.00,0.0,WeatherDisplay:10.37,2013-03-14 02:30:00,
2013-03-13 22:35:00,32.9,26.5,29.76,West,271,4.6,4.6,77,0.00,BKN,,0.00,0.0,WeatherDisplay:10.37,2013-03-14 02:35:00,
2013-03-13 22:40:00,32.8,26.4,29.75,West,272,3.5,3.5,77,0.00,BKN,,0.00,0.0,WeatherDisplay:10.37,2013-03-14 02:40:00,
2013-03-13 22:45:00,32.8,26.4,29.75,SSW,211,5.0,5.0,77,0.00,BKN,,0.00,0.0,WeatherDisplay:10.37,2013-03-14 02:45:00,
2013-03-13 22:50:00,32.7,26.3,29.75,SW,215,3.5,3.5,77,0.00,BKN,,0.00,0.0,WeatherDisplay:10.37,2013-03-14 02:50:00,
2013-03-13 22:55:00,32.5,26.4,29.75,WSW,243,2.3,2.3,78,0.00,BKN,,0.00,0.0,WeatherDisplay:10.37,2013-03-14 02:55:00,
2013-03-13 23:00:00,32.3,26.2,29.75,WSW,238,4.6,4.6,78,0.00,BKN,,0.00,0.0,WeatherDisplay:10.37,2013-03-14 03:00:00,
2013-03-13 23:05:00,32.1,26.0,29.75,WSW,240,5.8,5.8,78,0.00,BKN,,0.00,0.0,WeatherDisplay:10.37,2013-03-14 03:05:00,
2013-03-13 23:10:00,32.0,26.2,29.75,WSW,244,2.3,2.3,79,0.00,BKN,,0.00,0.0,WeatherDisplay:10.37,2013-03-14 03:10:00,
2013-03-13 23:15:00,31.9,26.1,29.75,SW,233,2.3,2.3,79,0.00,BKN,,0.00,0.0,WeatherDisplay:10.37,2013-03-14 03:15:00,
2013-03-13 23:20:00,31.7,25.9,29.75,SW,233,2.3,2.3,79,0.00,BKN,,0.00,0.0,WeatherDisplay:10.37,2013-03-14 03:20:00,
2013-03-13 23:25:00,31.5,26.0,29.74,SSW,205,3.5,3.5,80,0.00,BKN,,0.00,0.0,WeatherDisplay:10.37,2013-03-14 03:25:00,
2013-03-13 23:30:00,31.4,25.9,29.74,SSW,209,8.1,8.1,80,0.00,BKN,,0.00,0.0,WeatherDisplay:10.37,2013-03-14 03:30:00,
2013-03-13 23:35:00,31.4,26.2,29.74,SW,224,4.0,4.0,81,0.00,BKN,,0.00,0.0,WeatherDisplay:10.37,2013-03-14 03:35:00,
2013-03-13 23:40:00,31.4,26.2,29.74,SW,223,6.9,6.9,81,0.00,BKN,,0.00,0.0,WeatherDisplay:10.37,2013-03-14 03:40:00,
2013-03-13 23:45:00,31.5,26.3,29.74,SW,229,3.5,3.5,81,0.00,BKN,,0.00,0.0,WeatherDisplay:10.37,2013-03-14 03:45:00,
2013-03-13 23:50:00,31.6,26.4,29.74,SW,228,4.6,4.6,81,0.00,BKN,,0.00,0.0,WeatherDisplay:10.37,2013-03-14 03:50:00,
2013-03-13 23:55:00,31.6,26.7,29.73,SW,234,4.6,4.6,82,0.00,BKN,,0.00,0.0,WeatherDisplay:10.37,2013-03-14 03:55:00,